Flag for Peru Weather past 2 weeks in Trujillo, La Libertad, Peru

Now
63 °F

Fog.


Feels Like: 63 °F
Forecast: 65 / 75 °F
Wind: 7 mph from Southeast

Location: Trujillo Airport

Current Time: Dec 19, 2014 at 7:03:10 AM

Latest Report: Dec 19, 2014 at 6:00 AM


Visibility: 3 mi

Pressure: 29.89 "Hg

Humidity: 94%

Dew point: 61 °F

Location of TrujilloLocation

Historic Weather in Trujillo — Graph

°F

Trujillo temperature yesterday

Maximum temperature yesterday: 70 °F (at 12:00 PM)
Minimum temperature yesterday: 63 °F (at 6:00 AM)
Average temperature yesterday: 66 °F

Past Weeks' High & Low Weather Summary

 TemperatureHumidityPressure
High75 °F (Dec 8, 2:00 PM)94% (Dec 6, 5:00 AM)30.04 "Hg (Dec 6, 5:00 AM)
Low63 °F (Dec 5, 2:00 AM)65% (Dec 9, 1:00 PM)29.80 "Hg (Dec 7, 4:00 PM)
Average66 °F83%29.92 "Hg
* Reported Dec 4 6:00 AM — Dec 19 6:00 AM, Trujillo, Weather by CustomWeather, © 2014

Note: Actual official high and low records may vary slightly from our data, if they occured in-between our weather recording intervals... More about our weather records

Advertising

Trujillo weather history for previous 24 hours

 ConditionsComfort  
Time TempWeatherWind HumidityBarometerVisibility
6:00 AM
Dec 19
63 °FFog.7 mph94%29.89 "Hg3 mi
5:00 AM63 °FFog.8 mph94%29.89 "Hg2 mi
4:00 AM64 °FFog.9 mph88%29.89 "Hg3 mi
3:00 AM64 °FPassing clouds.8 mph88%29.92 "HgN/A
2:00 AM64 °FPassing clouds.3 mph88%29.92 "HgN/A
1:00 AM64 °FPassing clouds.3 mph88%29.95 "Hg5 mi
12:00 AM64 °FPassing clouds.3 mph88%29.95 "Hg5 mi
11:00 PM
Dec 18
66 °FPassing clouds.6 mph83%29.95 "Hg5 mi
10:00 PM66 °FPassing clouds.6 mph83%29.95 "HgN/A
9:00 PM66 °FPassing clouds.9 mph88%29.92 "HgN/A
8:00 PM66 °FPassing clouds.8 mph88%29.89 "HgN/A
7:00 PM66 °FPassing clouds.8 mph88%29.89 "HgN/A
6:00 PM68 °FPassing clouds.10 mph83%29.86 "HgN/A
5:00 PM68 °FPassing clouds.12 mph83%29.86 "HgN/A
4:00 PM70 °FPassing clouds.13 mph78%29.86 "HgN/A
3:00 PM70 °FPassing clouds.12 mph78%29.89 "HgN/A
2:00 PM70 °FPassing clouds.13 mph78%29.92 "HgN/A
1:00 PM70 °FPassing clouds.14 mph78%29.92 "HgN/A
12:00 PM70 °FPassing clouds.14 mph78%29.95 "HgN/A
11:00 AM68 °FPassing clouds.13 mph83%29.98 "HgN/A
10:00 AM68 °FPassing clouds.12 mph83%29.98 "HgN/A
9:00 AM64 °FScattered clouds.9 mph94%29.98 "HgN/A
8:00 AM64 °FFog.6 mph88%29.98 "Hg3 mi
7:00 AM63 °FFog.7 mph94%29.95 "Hg1 mi
Weather by CustomWeather, © 2014

See weather overviewHow to use our weather pages